Change the Weather History Date:

Friday, September 13, 2013

  Actual Average Record
Temperature  
Mean Temperature 64 °F 60 °F  
Max Temperature 74 °F 77 °F 94 °F (1948)
Min Temperature 54 °F 43 °F 26 °F (1949)
Degree Days  
Heating Degree Days 1 6  
Month to date heating degree days 2 51  
Since 1 July heating degree days 2 97  
Cooling Degree Days 0 1  
Month to date cooling degree days 50 18  
Year to date cooling degree days 677 388  
Growing Degree Days 14 (Base 50)    
Moisture  
Dew Point 53 °F    
Average Humidity 68    
Maximum Humidity 86    
Minimum Humidity 49    
Precipitation  
Precipitation T in 0.03 in 0.49 in (1980)
Month to date precipitation 0.55 0.34  
Year to date precipitation 4.58 8.41  
Snow  
Snow 0.00 in - - ()
Month to date snowfall 0.0  
Since 1 July snowfall 0.0  
Since 1 September snowfall 0.0  
Snow Depth 0.00 in    
Sea Level Pressure  
Sea Level Pressure 29.88 in    
Wind  
Wind Speed 6 mph (SSW)    
Max Wind Speed 13 mph    
Max Gust Speed 15 mph    
Visibility 10 miles    
Events Rain    
T = Trace of Precipitation, MM = Missing Value Source: NWS Daily Summary

Daily Weather History Graph

Daily Weather History Graph

Search for Another Location

Airport or City:

Trip Planner

Search our weather history database for the weather conditions in past years. The results will help you decide how hot, cold, wet, or windy it might be!

Date:

Astronomy

Sep. 13, 2013 Rise Set
Actual Time 7:08 AM MDT 7:43 PM MDT
Civil Twilight 6:39 AM MDT 8:11 PM MDT
Nautical Twilight 6:05 AM MDT 8:45 PM MDT
Astronomical Twilight 5:30 AM MDT 9:20 PM MDT
Moon 3:42 PM MDT (9/13) 12:34 AM MDT (9/13)
Length of Visible Light 13h 32m
Length of Day
12h 35m
Waxing Gibbous, 62% of the Moon is Illuminated
Sep 13
Waxing Gibbous
Sep 19
Full
Sep 26
Last Quarter
Oct 4
New
Oct 11
First Quarter

Hourly Weather History & Observations

Time (MDT) Temp. Dew Point Humidity Pressure Visibility Wind Dir Wind Speed Gust Speed Precip Events Conditions
12:53 AM 63.0 °F 52.0 °F 67% 29.94 in 10.0 mi WSW 6.9 mph - N/A   Partly Cloudy
1:53 AM 61.0 °F 55.0 °F 81% 29.95 in 10.0 mi Calm Calm - N/A   Overcast
2:53 AM 61.0 °F 52.0 °F 72% 29.94 in 10.0 mi SSE 3.5 mph - N/A   Scattered Clouds
3:53 AM 57.9 °F 52.0 °F 81% 29.92 in 10.0 mi West 5.8 mph - N/A   Clear
4:53 AM 57.9 °F 50.0 °F 75% 29.93 in 10.0 mi ENE 4.6 mph - N/A   Clear
5:53 AM 55.9 °F 51.1 °F 84% 29.92 in 10.0 mi NNW 6.9 mph - N/A   Clear
6:53 AM 57.0 °F 51.1 °F 81% 29.92 in 10.0 mi Calm Calm - N/A   Mostly Cloudy
7:53 AM 57.0 °F 52.0 °F 83% 29.94 in 10.0 mi WSW 4.6 mph - N/A   Scattered Clouds
8:53 AM 60.1 °F 53.1 °F 78% 29.93 in 10.0 mi SSW 6.9 mph - N/A   Partly Cloudy
9:53 AM 64.0 °F 55.0 °F 73% 29.94 in 10.0 mi WSW 6.9 mph - N/A   Partly Cloudy
10:53 AM 66.0 °F 55.9 °F 70% 29.94 in 10.0 mi WSW 5.8 mph - N/A   Partly Cloudy
11:53 AM 70.0 °F 54.0 °F 57% 29.89 in 10.0 mi Calm Calm - N/A   Scattered Clouds
12:53 PM 71.1 °F 52.0 °F 51% 29.88 in 10.0 mi Calm Calm - N/A   Scattered Clouds
1:53 PM 71.1 °F 52.0 °F 51% 29.86 in 10.0 mi SSW 4.6 mph - N/A   Mostly Cloudy
2:53 PM 71.1 °F 54.0 °F 55% 29.84 in 10.0 mi South 6.9 mph - 0.00 in Rain Light Rain
3:53 PM 71.1 °F 52.0 °F 51% 29.82 in 10.0 mi South 9.2 mph - 0.00 in   Mostly Cloudy
4:53 PM 70.0 °F 53.1 °F 55% 29.81 in 10.0 mi SSW 9.2 mph - N/A   Mostly Cloudy
5:53 PM 70.0 °F 52.0 °F 53% 29.81 in 10.0 mi South 10.4 mph - N/A   Scattered Clouds
6:53 PM 68.0 °F 52.0 °F 56% 29.82 in 10.0 mi South 8.1 mph - N/A   Mostly Cloudy
7:53 PM 66.9 °F 54.0 °F 63% 29.83 in 10.0 mi South 10.4 mph - N/A   Mostly Cloudy
8:53 PM 66.0 °F 52.0 °F 60% 29.83 in 10.0 mi SSW 8.1 mph - N/A   Partly Cloudy
9:53 PM 62.1 °F 52.0 °F 70% 29.84 in 10.0 mi South 9.2 mph - N/A   Partly Cloudy
10:53 PM 66.0 °F 52.0 °F 60% 29.83 in 10.0 mi SSE 4.6 mph - N/A   Mostly Cloudy
11:53 PM 64.0 °F 52.0 °F 65% 29.84 in 10.0 mi East 4.6 mph - N/A   Overcast